GM0VGI-13 Weather Reports


time (UTC)temp
C
wind
direction
speed
KPH
gust
KPH
rain 1hr
cm
rain 24hr
cm
rain mn
cm
humidity
%
barometer
mb
20260508164604 12 358 8.0 27.4 0.00 0.00 0.00 70 1015.6
20260508164406 12 353 8.0 27.4 0.00 0.00 0.00 68 1015.5
20260508164203 13 340 8.0 20.9 0.00 0.00 0.00 67 1015.3
20260508164007 13 338 8.0 20.9 0.00 0.00 0.00 67 1015.3
20260508163804 13 335 8.0 20.9 0.00 0.00 0.00 66 1015.1
20260508163606 13 332 8.0 20.9 0.00 0.00 0.00 65 1015.1
20260508163407 13 331 8.0 17.7 0.00 0.00 0.00 64 1015.0
20260508163203 13 330 6.4 17.7 0.00 0.00 0.00 63 1015.1
20260508163004 13 330 6.4 16.1 0.00 0.00 0.00 62 1015.0
20260508162803 13 329 6.4 16.1 0.00 0.00 0.00 62 1015.0
20260508162604 13 330 6.4 16.1 0.00 0.00 0.00 62 1014.8
20260508162404 13 328 6.4 16.1 0.00 0.00 0.00 61 1014.8
20260508162204 13 328 6.4 16.1 0.00 0.00 0.00 62 1014.8
20260508162007 13 324 6.4 16.1 0.00 0.00 0.00 62 1014.8
20260508161803 13 326 6.4 16.1 0.00 0.00 0.00 62 1014.7
20260508161603 13 321 6.4 16.1 0.00 0.00 0.00 61 1014.8
20260508161404 13 316 6.4 16.1 0.00 0.00 0.00 61 1014.6
20260508161204 13 310 6.4 16.1 0.00 0.00 0.00 62 1014.6
20260508161003 13 310 6.4 16.1 0.00 0.00 0.00 62 1014.6
20260508160804 13 303 6.4 19.3 0.00 0.00 0.00 61 1014.6
20260508160603 13 303 6.4 19.3 0.00 0.00 0.00 61 1014.6
20260508160407 13 307 8.0 19.3 0.00 0.00 0.00 60 1014.6
20260508160203 13 308 8.0 19.3 0.00 0.00 0.00 60 1014.6
20260508160003 13 309 8.0 19.3 0.00 0.00 0.00 59 1014.6
20260508155807 13 311 8.0 19.3 0.00 0.00 0.00 61 1014.6
20260508155605 13 313 8.0 17.7 0.00 0.00 0.00 60 1014.5
20260508155403 13 313 9.7 20.9 0.00 0.00 0.00 61 1014.5
20260508155204 13 312 9.7 20.9 0.00 0.00 0.00 61 1014.5
20260508155004 13 310 11.3 25.7 0.00 0.00 0.00 61 1014.6
20260508154803 13 311 11.3 25.7 0.00 0.00 0.00 61 1014.6
20260508154604 13 309 12.9 27.4 0.00 0.00 0.00 61 1014.7
20260508154403 13 311 12.9 27.4 0.00 0.00 0.00 61 1014.7
20260508154207 13 310 12.9 27.4 0.00 0.00 0.00 60 1014.6
20260508154003 13 311 11.3 27.4 0.00 0.00 0.00 60 1014.6
20260508153803 13 310 11.3 27.4 0.00 0.00 0.00 59 1014.6
20260508153604 13 312 11.3 27.4 0.00 0.00 0.00 59 1014.4
20260508153404 14 308 9.7 27.4 0.00 0.00 0.00 59 1014.5
20260508153205 14 309 9.7 27.4 0.00 0.00 0.00 58 1014.4
20260508153004 14 308 9.7 27.4 0.00 0.00 0.00 56 1014.4
20260508152805 14 310 8.0 20.9 0.00 0.00 0.00 56 1014.3
20260508152603 15 311 8.0 20.9 0.00 0.00 0.00 55 1014.2
20260508152404 15 315 8.0 20.9 0.00 0.00 0.00 54 1014.3
20260508152203 15 313 9.7 22.5 0.00 0.00 0.00 54 1014.1
20260508152003 15 309 9.7 22.5 0.00 0.00 0.00 53 1014.1
20260508151803 15 299 8.0 22.5 0.00 0.00 0.00 52 1014.1
20260508151603 15 283 8.0 22.5 0.00 0.00 0.00 52 1014.0
20260508151405 15 263 8.0 22.5 0.00 0.00 0.00 52 1014.1
20260508151215 15 244 6.4 17.7 0.00 0.00 0.00 50 1014.1
20260508151003 15 226 6.4 17.7 0.00 0.00 0.00 47 1014.0
20260508150804 15 226 8.0 17.7 0.00 0.00 0.00 47 1013.8
20260508150604 15 228 8.0 17.7 0.00 0.00 0.00 47 1014.0
20260508150404 15 233 6.4 17.7 0.00 0.00 0.00 47 1013.9
20260508150203 15 240 6.4 17.7 0.00 0.00 0.00 46 1013.9
20260508150003 16 254 6.4 16.1 0.00 0.00 0.00 46 1013.9
20260508145803 16 260 6.4 12.9 0.00 0.00 0.00 47 1013.8
20260508145603 16 261 6.4 12.9 0.00 0.00 0.00 46 1013.9
20260508145403 16 260 6.4 17.7 0.00 0.00 0.00 47 1013.9
20260508145207 16 256 6.4 17.7 0.00 0.00 0.00 48 1013.8
20260508145004 16 253 6.4 17.7 0.00 0.00 0.00 47 1013.8
20260508144804 16 249 6.4 17.7 0.00 0.00 0.00 47 1013.8
20260508144606 16 245 6.4 17.7 0.00 0.00 0.00 47 1013.8
20260508144403 16 239 6.4 17.7 0.00 0.00 0.00 47 1013.7
20260508144204 16 244 8.0 19.3 0.00 0.00 0.00 47 1013.9
20260508144004 15 243 8.0 19.3 0.00 0.00 0.00 48 1013.8
20260508143804 15 243 8.0 19.3 0.00 0.00 0.00 48 1013.8
20260508143607 15 243 9.7 19.3 0.00 0.00 0.00 46 1013.8
20260508143403 15 236 9.7 19.3 0.00 0.00 0.00 47 1013.9
20260508143203 15 231 9.7 19.3 0.00 0.00 0.00 47 1013.8
20260508143004 15 231 9.7 19.3 0.00 0.00 0.00 47 1013.8
20260508142803 15 229 9.7 19.3 0.00 0.00 0.00 46 1013.8
20260508142604 15 227 9.7 25.7 0.00 0.00 0.00 47 1013.9
20260508142404 15 231 11.3 25.7 0.00 0.00 0.00 46 1013.8
20260508142203 15 231 11.3 25.7 0.00 0.00 0.00 47 1013.9
20260508142005 15 236 11.3 25.7 0.00 0.00 0.00 47 1013.9
20260508141803 15 240 11.3 25.7 0.00 0.00 0.00 48 1013.9
20260508141603 15 241 11.3 19.3 0.00 0.00 0.00 47 1013.8
20260508141404 15 243 9.7 22.5 0.00 0.00 0.00 47 1013.9
20260508141203 15 248 9.7 22.5 0.00 0.00 0.00 47 1013.8
20260508141004 15 247 9.7 22.5 0.00 0.00 0.00 47 1013.8
20260508140803 15 248 9.7 22.5 0.00 0.00 0.00 47 1013.8
20260508140606 15 247 9.7 22.5 0.00 0.00 0.00 48 1013.8
20260508140403 15 245 9.7 20.9 0.00 0.00 0.00 48 1013.8
20260508140203 15 244 9.7 20.9 0.00 0.00 0.00 48 1013.8
20260508140007 15 244 9.7 20.9 0.00 0.00 0.00 50 1013.8
20260508135803 15 247 9.7 20.9 0.00 0.00 0.00 50 1013.8
20260508135603 15 246 9.7 19.3 0.00 0.00 0.00 50 1013.7
20260508135404 15 246 9.7 20.9 0.00 0.00 0.00 50 1013.7
20260508135203 15 246 9.7 20.9 0.00 0.00 0.00 49 1013.7
20260508135006 15 245 9.7 20.9 0.00 0.00 0.00 49 1013.7
20260508134803 15 243 11.3 29.0 0.00 0.00 0.00 48 1013.8
20260508134603 15 252 9.7 29.0 0.00 0.00 0.00 49 1013.7
20260508134406 15 260 9.7 29.0 0.00 0.00 0.00 50 1013.7
20260508134204 15 259 9.7 29.0 0.00 0.00 0.00 51 1013.7
20260508134006 15 256 9.7 29.0 0.00 0.00 0.00 51 1013.7
20260508133803 15 254 9.7 20.9 0.00 0.00 0.00 51 1013.7
20260508133603 15 249 9.7 19.3 0.00 0.00 0.00 51 1013.7
20260508133403 15 251 9.7 19.3 0.00 0.00 0.00 52 1013.7
20260508133204 15 250 9.7 19.3 0.00 0.00 0.00 51 1013.6
20260508133004 15 252 9.7 19.3 0.00 0.00 0.00 52 1013.7
20260508132803 15 255 9.7 19.3 0.00 0.00 0.00 52 1013.7
20260508132604 15 255 9.7 19.3 0.00 0.00 0.00 52 1013.7
20260508132403 15 248 9.7 19.3 0.00 0.00 0.00 52 1013.7
20260508132204 15 244 9.7 19.3 0.00 0.00 0.00 52 1013.7
20260508132004 15 244 8.0 19.3 0.00 0.00 0.00 52 1013.6
20260508131803 15 242 6.4 19.3 0.00 0.00 0.00 52 1013.7
20260508131604 15 239 6.4 19.3 0.00 0.00 0.00 52 1013.7
20260508131403 15 241 6.4 19.3 0.00 0.00 0.00 53 1013.6
20260508131203 15 244 6.4 19.3 0.00 0.00 0.00 54 1013.6
20260508131004 15 244 6.4 19.3 0.00 0.00 0.00 53 1013.6
20260508130803 15 249 6.4 19.3 0.00 0.00 0.00 53 1013.6
20260508130603 15 247 6.4 16.1 0.00 0.00 0.00 54 1013.6
20260508130404 15 241 6.4 16.1 0.00 0.00 0.00 54 1013.6
20260508130204 15 238 6.4 16.1 0.00 0.00 0.00 54 1013.6
20260508130003 15 235 8.0 16.1 0.00 0.00 0.00 54 1013.6
20260508125806 15 229 6.4 16.1 0.00 0.00 0.00 53 1013.6
20260508125604 15 232 6.4 12.9 0.00 0.00 0.00 53 1013.6
20260508125403 15 240 6.4 12.9 0.00 0.00 0.00 53 1013.6
20260508125203 15 240 6.4 19.3 0.00 0.00 0.00 54 1013.6
20260508125004 15 243 6.4 19.3 0.00 0.00 0.00 54 1013.5
20260508124803 15 241 6.4 20.9 0.00 0.00 0.00 54 1013.5
20260508124604 15 239 6.4 20.9 0.00 0.00 0.00 55 1013.6
20260508124406 15 237 6.4 20.9 0.00 0.00 0.00 55 1013.6
20260508124207 15 242 6.4 20.9 0.00 0.00 0.00 56 1013.5
20260508124006 15 241 6.4 20.9 0.00 0.00 0.00 55 1013.5
20260508123804 15 244 6.4 17.7 0.00 0.00 0.00 56 1013.5
20260508123604 15 242 6.4 17.7 0.00 0.00 0.00 56 1013.5
20260508123403 15 238 8.0 17.7 0.00 0.00 0.00 56 1013.5
20260508123209 15 236 8.0 17.7 0.00 0.00 0.00 56 1013.5
20260508123003 14 239 8.0 17.7 0.00 0.00 0.00 56 1013.4
20260508122804 14 242 8.0 17.7 0.00 0.00 0.00 56 1013.5
20260508122604 14 246 8.0 22.5 0.00 0.00 0.00 56 1013.5
20260508122406 14 249 8.0 22.5 0.00 0.00 0.00 57 1013.4
20260508122203 14 250 8.0 22.5 0.00 0.00 0.00 56 1013.5
20260508122003 14 243 8.0 22.5 0.00 0.00 0.00 56 1013.5
20260508121803 14 240 8.0 22.5 0.00 0.00 0.00 55 1013.5
20260508121604 14 238 9.7 22.5 0.00 0.00 0.00 55 1013.4
20260508121403 14 237 9.7 22.5 0.00 0.00 0.00 56 1013.5
20260508121204 14 237 9.7 22.5 0.00 0.00 0.00 55 1013.5
20260508121004 14 241 11.3 22.5 0.00 0.00 0.00 54 1013.4
20260508120805 14 241 11.3 22.5 0.00 0.00 0.00 55 1013.4
20260508120603 14 242 11.3 22.5 0.00 0.00 0.00 56 1013.4
20260508120406 14 242 12.9 27.4 0.00 0.00 0.00 55 1013.4
20260508120204 14 240 12.9 27.4 0.00 0.00 0.00 55 1013.4
20260508120004 14 240 12.9 27.4 0.00 0.00 0.00 55 1013.4
20260508115804 14 239 12.9 27.4 0.00 0.00 0.00 55 1013.4
20260508115604 14 239 12.9 27.4 0.00 0.00 0.00 55 1013.4
20260508115403 14 237 12.9 25.7 0.00 0.00 0.00 56 1013.4
20260508115204 14 238 12.9 27.4 0.00 0.00 0.00 55 1013.4
20260508115003 14 238 14.5 27.4 0.00 0.00 0.00 55 1013.3
20260508114804 14 239 14.5 27.4 0.00 0.00 0.00 55 1013.2
20260508114604 14 241 12.9 27.4 0.00 0.00 0.00 54 1013.2
20260508114403 14 243 12.9 27.4 0.00 0.00 0.00 55 1013.2
20260508114204 14 242 12.9 27.4 0.00 0.00 0.00 55 1013.2
20260508114004 14 239 11.3 20.9 0.00 0.00 0.00 56 1013.1
20260508113804 14 238 9.7 20.9 0.00 0.00 0.00 56 1013.1
20260508113605 14 231 11.3 22.5 0.00 0.00 0.00 56 1013.2
20260508113404 14 228 9.7 22.5 0.00 0.00 0.00 56 1013.1
20260508113203 13 230 9.7 22.5 0.00 0.00 0.00 56 1013.1
20260508113005 13 229 11.3 22.5 0.00 0.00 0.00 56 1013.0
20260508112803 13 228 11.3 22.5 0.00 0.00 0.00 56 1013.0
20260508112604 13 230 11.3 22.5 0.00 0.00 0.00 56 1013.0
20260508112405 13 230 11.3 22.5 0.00 0.00 0.00 56 1013.0
20260508112203 13 229 11.3 22.5 0.00 0.00 0.00 57 1013.0
20260508112003 13 230 11.3 20.9 0.00 0.00 0.00 57 1013.0
20260508111803 13 231 12.9 29.0 0.00 0.00 0.00 57 1013.0
20260508111603 13 233 12.9 29.0 0.00 0.00 0.00 57 1013.0
20260508111403 13 232 12.9 29.0 0.00 0.00 0.00 57 1013.0
20260508111204 13 229 11.3 29.0 0.00 0.00 0.00 56 1013.0
20260508111003 13 226 9.7 29.0 0.00 0.00 0.00 58 1012.9
20260508110805 13 226 9.7 22.5 0.00 0.00 0.00 58 1012.9
20260508110603 13 223 8.0 22.5 0.00 0.00 0.00 60 1013.0
20260508110404 13 222 8.0 22.5 0.00 0.00 0.00 59 1013.0
20260508110204 13 228 9.7 22.5 0.00 0.00 0.00 59 1012.9
20260508110004 13 227 9.7 22.5 0.00 0.00 0.00 58 1012.9
20260508105804 13 223 9.7 20.9 0.00 0.00 0.00 59 1012.9
20260508105604 13 221 8.0 20.9 0.00 0.00 0.00 60 1012.8
20260508105406 13 213 8.0 20.9 0.00 0.00 0.00 61 1012.9
20260508105204 13 203 6.4 19.3 0.00 0.00 0.00 61 1012.8
20260508105004 13 211 8.0 22.5 0.00 0.00 0.00 61 1012.8
20260508104806 12 210 8.0 22.5 0.00 0.00 0.00 62 1012.9
20260508104607 12 209 8.0 22.5 0.00 0.00 0.00 61 1012.8
20260508104404 12 212 8.0 22.5 0.00 0.00 0.00 62 1012.8
20260508104203 12 216 9.7 22.5 0.00 0.00 0.00 61 1012.8
20260508104003 13 213 8.0 19.3 0.00 0.00 0.00 62 1012.8
20260508103803 13 220 9.7 19.3 0.00 0.00 0.00 62 1012.8
20260508103603 12 225 8.0 19.3 0.00 0.00 0.00 63 1012.8
20260508103403 12 231 9.7 17.7 0.00 0.00 0.00 63 1012.7
20260508103203 12 233 9.7 19.3 0.00 0.00 0.00 63 1012.7
20260508103003 12 235 9.7 19.3 0.00 0.00 0.00 64 1012.7
20260508102804 12 234 9.7 19.3 0.00 0.00 0.00 63 1012.7
20260508102608 12 235 11.3 19.3 0.00 0.00 0.00 63 1012.7
20260508102403 12 235 11.3 19.3 0.00 0.00 0.00 64 1012.7
20260508102203 12 236 11.3 22.5 0.00 0.00 0.00 64 1012.7
20260508102005 12 234 11.3 22.5 0.00 0.00 0.00 63 1012.7
20260508101803 12 234 9.7 22.5 0.00 0.00 0.00 63 1012.7
20260508101604 12 234 9.7 22.5 0.00 0.00 0.00 63 1012.7
20260508101404 12 228 9.7 22.5 0.00 0.00 0.00 64 1012.7
20260508101204 12 227 8.0 20.9 0.00 0.00 0.00 64 1012.6
20260508101003 12 222 8.0 20.9 0.00 0.00 0.00 63 1012.6
20260508100803 12 213 8.0 20.9 0.00 0.00 0.00 64 1012.6
20260508100604 12 206 8.0 20.9 0.00 0.00 0.00 65 1012.6
20260508100404 12 209 8.0 20.9 0.00 0.00 0.00 65 1012.5
20260508100203 12 200 6.4 19.3 0.00 0.00 0.00 65 1012.6
20260508100003 12 204 6.4 19.3 0.00 0.00 0.00 65 1012.6
20260508095804 12 206 6.4 19.3 0.00 0.00 0.00 65 1012.5
20260508095603 12 202 6.4 19.3 0.00 0.00 0.00 66 1012.5
20260508095404 12 199 6.4 19.3 0.00 0.00 0.00 67 1012.5
20260508095203 12 199 6.4 19.3 0.00 0.00 0.00 66 1012.4
20260508095004 12 197 6.4 19.3 0.00 0.00 0.00 66 1012.4
20260508094804 12 199 6.4 17.7 0.00 0.00 0.00 66 1012.4
20260508094604 12 203 6.4 20.9 0.00 0.00 0.00 67 1012.5
20260508094404 11 201 8.0 20.9 0.00 0.00 0.00 66 1012.5
20260508094203 11 201 8.0 20.9 0.00 0.00 0.00 66 1012.5
20260508094006 11 200 8.0 20.9 0.00 0.00 0.00 66 1012.4
20260508093803 11 200 8.0 20.9 0.00 0.00 0.00 66 1012.4
20260508093606 11 197 8.0 19.3 0.00 0.00 0.00 65 1012.5
20260508093404 11 200 8.0 19.3 0.00 0.00 0.00 67 1012.4
20260508093203 11 203 6.4 17.7 0.00 0.00 0.00 68 1012.5
20260508093003 11 206 6.4 19.3 0.00 0.00 0.00 67 1012.4
20260508092803 11 211 8.0 19.3 0.00 0.00 0.00 68 1012.4
20260508092603 11 212 8.0 19.3 0.00 0.00 0.00 68 1012.3
20260508092404 11 217 8.0 19.3 0.00 0.00 0.00 69 1012.3
20260508092203 11 215 8.0 19.3 0.00 0.00 0.00 68 1012.3
20260508092008 11 214 9.7 22.5 0.00 0.00 0.00 69 1012.3
20260508091803 11 214 8.0 22.5 0.00 0.00 0.00 69 1012.3
20260508091603 11 217 8.0 22.5 0.00 0.00 0.00 69 1012.2
20260508091404 11 217 8.0 22.5 0.00 0.00 0.00 70 1012.3
20260508091204 11 218 6.4 22.5 0.00 0.00 0.00 69 1012.2
20260508091004 11 221 6.4 22.5 0.00 0.00 0.00 69 1012.2
20260508090804 11 223 6.4 16.1 0.00 0.00 0.00 71 1012.2
20260508090603 11 224 8.0 17.7 0.00 0.00 0.00 70 1012.3
20260508090403 11 225 8.0 17.7 0.00 0.00 0.00 70 1012.3
20260508090203 11 227 9.7 17.7 0.00 0.00 0.00 70 1012.3
20260508090003 11 229 8.0 17.7 0.00 0.00 0.00 69 1012.2
20260508085807 11 224 8.0 17.7 0.00 0.00 0.00 69 1012.3
20260508085606 11 221 8.0 17.7 0.00 0.00 0.00 69 1012.3
20260508085403 11 217 6.4 17.7 0.00 0.00 0.00 70 1012.2
20260508085203 11 209 6.4 20.9 0.00 0.00 0.00 70 1012.3
20260508085006 11 205 6.4 20.9 0.00 0.00 0.00 71 1012.2
20260508084804 11 208 6.4 20.9 0.00 0.00 0.00 71 1012.3
20260508084604 11 208 6.4 20.9 0.00 0.00 0.00 71 1012.2
20260508084404 11 210 4.8 20.9 0.00 0.00 0.00 72 1012.2
20260508084204 11 211 4.8 12.9 0.00 0.00 0.00 72 1012.2
20260508084003 11 212 4.8 12.9 0.00 0.00 0.00 72 1012.2
20260508083803 11 219 4.8 16.1 0.00 0.00 0.00 72 1012.2
20260508083604 11 220 6.4 16.1 0.00 0.00 0.00 73 1012.2
20260508083403 11 215 6.4 16.1 0.00 0.00 0.00 72 1012.2
20260508083206 11 216 6.4 16.1 0.00 0.00 0.00 72 1012.2
20260508083003 11 217 6.4 16.1 0.00 0.00 0.00 72 1012.1
20260508082804 11 210 6.4 16.1 0.00 0.00 0.00 73 1012.1
20260508082606 11 208 4.8 16.1 0.00 0.00 0.00 73 1012.1
20260508082404 11 211 4.8 16.1 0.00 0.00 0.00 74 1012.0
20260508082203 11 216 6.4 12.9 0.00 0.00 0.00 74 1012.0
20260508082003 11 211 6.4 12.9 0.00 0.00 0.00 74 1012.0
20260508081804 11 214 4.8 12.9 0.00 0.00 0.00 74 1011.9
20260508081604 11 220 6.4 12.9 0.00 0.00 0.00 75 1012.0
20260508081404 11 219 6.4 12.9 0.00 0.00 0.00 75 1011.9
20260508081203 11 221 6.4 16.1 0.00 0.00 0.00 75 1011.9
20260508081003 11 222 6.4 16.1 0.00 0.00 0.00 75 1011.9
20260508080804 11 217 6.4 17.7 0.00 0.00 0.00 75 1011.9
20260508080606 11 211 6.4 17.7 0.00 0.00 0.00 75 1011.9
20260508080404 11 209 6.4 17.7 0.00 0.00 0.00 75 1011.8
20260508080203 11 201 6.4 17.7 0.00 0.00 0.00 75 1011.9
20260508080004 11 200 4.8 17.7 0.00 0.00 0.00 76 1011.8
20260508075803 10 199 6.4 12.9 0.00 0.00 0.00 76 1011.8
20260508075604 10 196 6.4 16.1 0.00 0.00 0.00 76 1011.8
20260508075404 10 193 6.4 16.1 0.00 0.00 0.00 77 1011.7
20260508075203 10 190 6.4 16.1 0.00 0.00 0.00 77 1011.8
20260508075004 10 189 6.4 16.1 0.00 0.00 0.00 77 1011.8
20260508074804 10 190 6.4 17.7 0.00 0.00 0.00 77 1011.7
20260508074603 10 190 4.8 17.7 0.00 0.00 0.00 78 1011.7
20260508074403 10 192 4.8 17.7 0.00 0.00 0.00 78 1011.6
20260508074204 10 192 4.8 17.7 0.00 0.00 0.00 78 1011.6
20260508074003 10 193 4.8 17.7 0.00 0.00 0.00 79 1011.6
20260508073803 10 194 4.8 9.7 0.00 0.00 0.00 79 1011.5
20260508073607 10 190 4.8 9.7 0.00 0.00 0.00 79 1011.5
20260508073403 10 181 4.8 11.3 0.00 0.00 0.00 79 1011.5
20260508073204 10 179 4.8 12.9 0.00 0.00 0.00 79 1011.5
20260508073008 10 173 4.8 12.9 0.00 0.00 0.00 80 1011.5
20260508072807 10 168 4.8 12.9 0.00 0.00 0.00 79 1011.5
20260508072604 10 172 4.8 12.9 0.00 0.00 0.00 79 1011.4
20260508072403 10 180 4.8 12.9 0.00 0.00 0.00 79 1011.4
20260508072203 10 183 4.8 11.3 0.00 0.00 0.00 79 1011.4
20260508072006 10 185 4.8 11.3 0.00 0.00 0.00 79 1011.3
20260508071803 10 188 4.8 11.3 0.00 0.00 0.00 79 1011.3
20260508071603 10 186 4.8 11.3 0.00 0.00 0.00 79 1011.2
20260508071404 10 185 4.8 11.3 0.00 0.00 0.00 80 1011.2
20260508071204 10 185 4.8 12.9 0.00 0.00 0.00 80 1011.2
20260508071003 10 187 4.8 12.9 0.00 0.00 0.00 80 1011.2
20260508070804 10 188 4.8 16.1 0.00 0.00 0.00 80 1011.2
20260508070604 10 191 6.4 16.1 0.00 0.00 0.00 80 1011.1
20260508070403 10 190 4.8 16.1 0.00 0.00 0.00 80 1011.1
20260508070203 10 188 6.4 16.1 0.00 0.00 0.00 80 1011.1
20260508070003 10 186 6.4 16.1 0.00 0.00 0.00 80 1011.1
20260508065804 10 185 4.8 16.1 0.00 0.00 0.00 80 1011.0
20260508065606 10 184 4.8 16.1 0.00 0.00 0.00 80 1011.0
20260508065403 10 187 4.8 16.1 0.00 0.00 0.00 80 1011.0
20260508065204 10 191 4.8 16.1 0.00 0.00 0.00 80 1010.9
20260508065003 10 195 4.8 16.1 0.00 0.00 0.00 80 1010.9
20260508064803 10 194 4.8 16.1 0.00 0.00 0.00 80 1010.9
20260508064603 10 194 4.8 16.1 0.00 0.00 0.00 80 1010.9
20260508064403 10 194 6.4 16.1 0.00 0.00 0.00 80 1010.8
20260508064204 10 194 4.8 12.9 0.00 0.00 0.00 80 1010.8
20260508064004 10 196 4.8 12.9 0.00 0.00 0.00 80 1010.8
20260508063803 10 200 4.8 12.9 0.00 0.00 0.00 80 1010.7
20260508063603 10 202 4.8 11.3 0.00 0.00 0.00 80 1010.8
20260508063404 10 204 4.8 11.3 0.00 0.00 0.00 80 1010.8
20260508063203 10 203 4.8 9.7 0.00 0.00 0.00 80 1010.7
20260508063003 10 203 4.8 9.7 0.00 0.00 0.00 80 1010.9
20260508062806 10 202 4.8 9.7 0.00 0.00 0.00 80 1010.7
20260508062605 10 205 4.8 9.7 0.00 0.00 0.00 80 1010.7
20260508062404 10 204 4.8 11.3 0.00 0.00 0.00 80 1010.7
20260508062204 10 203 4.8 19.3 0.00 0.00 0.00 80 1010.7
20260508062003 10 199 6.4 19.3 0.00 0.00 0.00 80 1010.7
20260508061803 10 198 6.4 19.3 0.00 0.00 0.00 80 1010.6
20260508061604 10 196 6.4 19.3 0.00 0.00 0.00 80 1010.6
20260508061404 10 195 6.4 19.3 0.00 0.00 0.00 81 1010.5
20260508061204 10 194 6.4 12.9 0.00 0.00 0.00 80 1010.5
20260508061005 9 197 6.4 12.9 0.00 0.00 0.00 81 1010.4
20260508060804 9 196 6.4 12.9 0.00 0.00 0.00 81 1010.3
20260508060604 9 195 6.4 16.1 0.00 0.00 0.00 81 1010.4
20260508060404 9 195 6.4 16.1 0.00 0.00 0.00 81 1010.4
20260508060204 9 195 6.4 16.1 0.00 0.00 0.00 81 1010.3
20260508060004 9 197 8.0 19.3 0.00 0.00 0.00 81 1010.3
20260508055807 9 198 8.0 19.3 0.00 0.00 0.00 81 1010.3
20260508055606 9 199 8.0 19.3 0.00 0.00 0.00 81 1010.3
20260508055403 9 199 8.0 19.3 0.00 0.00 0.00 81 1010.2
20260508055204 9 197 8.0 20.9 0.00 0.00 0.00 81 1010.4
20260508055003 9 193 6.4 20.9 0.00 0.00 0.00 81 1010.3
20260508054803 9 193 6.4 20.9 0.00 0.00 0.00 81 1010.3
20260508054604 9 190 8.0 20.9 0.00 0.00 0.00 82 1010.3
20260508054404 9 187 6.4 20.9 0.00 0.00 0.00 82 1010.2
20260508054204 9 189 6.4 17.7 0.00 0.00 0.00 82 1010.3
20260508054004 8 187 6.4 17.7 0.00 0.00 0.00 82 1010.3
20260508053804 8 186 6.4 17.7 0.00 0.00 0.00 82 1010.2
20260508053603 8 184 6.4 16.1 0.00 0.00 0.00 83 1010.2
20260508053404 8 181 6.4 19.3 0.00 0.00 0.00 82 1010.1
20260508053203 8 181 6.4 19.3 0.00 0.00 0.00 82 1010.0
20260508053003 8 183 6.4 19.3 0.00 0.00 0.00 82 1009.9
20260508052803 8 183 6.4 19.3 0.00 0.00 0.00 82 1009.9
20260508052604 8 188 4.8 19.3 0.00 0.00 0.00 82 1009.9
20260508052403 8 195 4.8 17.7 0.00 0.00 0.00 82 1009.9
20260508052203 8 194 4.8 11.3 0.00 0.00 0.00 82 1009.8
20260508052003 8 193 4.8 11.3 0.00 0.00 0.00 82 1009.8
20260508051803 8 193 4.8 11.3 0.00 0.00 0.00 82 1009.8
20260508051604 8 192 4.8 12.9 0.00 0.00 0.00 82 1009.8
20260508051403 8 192 4.8 12.9 0.00 0.00 0.00 82 1009.8
20260508051203 8 191 4.8 12.9 0.00 0.00 0.00 82 1009.7
20260508051006 8 192 3.2 12.9 0.00 0.00 0.00 82 1009.7
20260508050808 8 194 4.8 16.1 0.00 0.00 0.00 82 1009.7
20260508050604 8 196 4.8 16.1 0.00 0.00 0.00 82 1009.7
20260508050403 8 195 4.8 16.1 0.00 0.00 0.00 82 1009.6
20260508050203 8 194 6.4 16.1 0.00 0.00 0.00 82 1009.6
20260508050003 8 192 6.4 16.1 0.00 0.00 0.00 82 1009.6
20260508045804 8 191 6.4 16.1 0.00 0.00 0.00 82 1009.6
20260508045603 8 188 6.4 17.7 0.00 0.00 0.00 82 1009.6
20260508045405 8 188 6.4 17.7 0.00 0.00 0.00 82 1009.6
20260508045203 8 189 6.4 17.7 0.00 0.00 0.00 83 1009.6
20260508045003 8 190 6.4 17.7 0.00 0.00 0.00 83 1009.6
20260508044804 8 188 6.4 17.7 0.00 0.00 0.00 82 1009.5
20260508044606 8 192 6.4 16.1 0.00 0.00 0.00 82 1009.5
20260508044404 8 192 6.4 16.1 0.00 0.00 0.00 83 1009.5
20260508044203 8 191 6.4 12.9 0.00 0.00 0.00 82 1009.4
20260508044003 8 193 6.4 16.1 0.00 0.00 0.00 82 1009.4
20260508043805 8 193 6.4 16.1 0.00 0.00 0.00 82 1009.5
20260508043603 8 194 6.4 16.1 0.00 0.00 0.00 82 1009.4
20260508043403 8 193 8.0 17.7 0.00 0.00 0.00 83 1009.4
20260508043204 8 194 8.0 17.7 0.00 0.00 0.00 82 1009.4
20260508043003 8 192 8.0 17.7 0.00 0.00 0.00 83 1009.5
20260508042804 8 192 8.0 17.7 0.00 0.00 0.00 82 1009.5
20260508042604 8 190 8.0 17.7 0.00 0.00 0.00 83 1009.5
20260508042403 8 191 8.0 17.7 0.00 0.00 0.00 83 1009.5
20260508042203 8 191 8.0 17.7 0.00 0.00 0.00 83 1009.6
20260508042004 8 192 6.4 16.1 0.00 0.00 0.00 83 1009.5
20260508041804 8 192 6.4 16.1 0.00 0.00 0.00 83 1009.6
20260508041604 8 193 6.4 16.1 0.00 0.00 0.00 83 1009.5
20260508041403 8 193 6.4 16.1 0.00 0.00 0.00 83 1009.5
20260508041204 8 189 4.8 12.9 0.00 0.00 0.00 83 1009.5
20260508041003 8 188 4.8 12.9 0.00 0.00 0.00 83 1009.5
20260508040803 8 181 4.8 12.9 0.00 0.00 0.00 83 1009.4
20260508040603 8 174 4.8 11.3 0.00 0.00 0.00 83 1009.4
20260508040404 8 166 4.8 11.3 0.00 0.00 0.00 83 1009.4
20260508040203 8 167 4.8 11.3 0.00 0.00 0.00 83 1009.4
20260508040003 8 160 4.8 9.7 0.00 0.00 0.00 83 1009.5
20260508035805 8 159 4.8 9.7 0.00 0.00 0.00 83 1009.4
20260508035603 8 163 4.8 9.7 0.00 0.00 0.00 83 1009.5
20260508035404 8 163 4.8 11.3 0.00 0.00 0.00 83 1009.4
20260508035203 8 163 4.8 11.3 0.00 0.00 0.00 83 1009.5
20260508035003 8 162 4.8 11.3 0.00 0.00 0.00 83 1009.5
20260508034803 8 162 4.8 11.3 0.00 0.00 0.00 83 1009.5
20260508034603 8 155 4.8 11.3 0.00 0.00 0.00 83 1009.5
20260508034404 8 152 4.8 16.1 0.00 0.00 0.00 83 1009.5
20260508034203 8 148 4.8 16.1 0.00 0.00 0.00 83 1009.5
20260508034003 8 149 4.8 16.1 0.00 0.00 0.00 83 1009.5
20260508033803 8 152 4.8 16.1 0.00 0.00 0.00 83 1009.5
20260508033603 8 152 4.8 16.1 0.00 0.00 0.00 83 1009.4
20260508033403 8 154 4.8 16.1 0.00 0.00 0.00 83 1009.4
20260508033204 8 156 4.8 16.1 0.00 0.00 0.00 83 1009.5
20260508033003 8 157 4.8 16.1 0.00 0.00 0.00 83 1009.4
20260508032804 8 158 6.4 16.1 0.00 0.00 0.00 83 1009.5
20260508032604 8 158 6.4 16.1 0.00 0.00 0.00 83 1009.4
20260508032404 8 161 6.4 12.9 0.00 0.00 0.00 83 1009.3
20260508032204 8 163 6.4 12.9 0.00 0.00 0.00 83 1009.3
20260508032003 8 167 4.8 12.9 0.00 0.00 0.00 83 1009.4
20260508031803 8 165 4.8 11.3 0.00 0.00 0.00 83 1009.4
20260508031604 8 169 3.2 11.3 0.00 0.00 0.00 83 1009.4
20260508031403 8 167 3.2 11.3 0.00 0.00 0.00 83 1009.4
20260508031203 8 159 3.2 11.3 0.00 0.00 0.00 83 1009.5
20260508031003 8 151 4.8 11.3 0.00 0.00 0.00 83 1009.5
20260508030804 8 150 4.8 9.7 0.00 0.00 0.00 83 1009.5
20260508030603 8 153 6.4 11.3 0.00 0.00 0.00 83 1009.5
20260508030403 8 154 6.4 11.3 0.00 0.00 0.00 83 1009.5
20260508030203 8 154 6.4 16.1 0.00 0.00 0.00 83 1009.5
20260508030004 8 156 6.4 16.1 0.00 0.00 0.00 83 1009.5
20260508025804 8 158 6.4 16.1 0.00 0.00 0.00 83 1009.6
20260508025603 8 155 4.8 16.1 0.00 0.00 0.00 83 1009.5
20260508025403 8 152 4.8 16.1 0.00 0.00 0.00 83 1009.6
20260508025203 8 152 4.8 12.9 0.00 0.00 0.00 83 1009.6
20260508025004 8 151 6.4 16.1 0.00 0.00 0.00 83 1009.6
20260508024803 8 149 6.4 16.1 0.00 0.00 0.00 83 1009.6
20260508024603 8 149 6.4 16.1 0.00 0.00 0.00 83 1009.6
20260508024404 8 150 6.4 16.1 0.00 0.00 0.00 82 1009.6
20260508024203 8 152 8.0 16.1 0.00 0.00 0.00 82 1009.5
20260508024004 8 158 6.4 16.1 0.00 0.00 0.00 83 1009.6
20260508023803 8 159 6.4 16.1 0.00 0.00 0.00 82 1009.6
20260508023604 8 161 6.4 17.7 0.00 0.00 0.00 83 1009.6
20260508023403 8 158 6.4 17.7 0.00 0.00 0.00 83 1009.5
20260508023203 8 156 6.4 17.7 0.00 0.00 0.00 83 1009.6
20260508023004 8 151 6.4 20.9 0.00 0.00 0.00 83 1009.6
20260508022804 8 151 8.0 20.9 0.00 0.00 0.00 83 1009.6
20260508022604 8 153 8.0 20.9 0.00 0.00 0.00 83 1009.6
20260508022403 8 157 8.0 20.9 0.00 0.00 0.00 83 1009.6
20260508022204 8 159 8.0 20.9 0.00 0.00 0.00 83 1009.6
20260508022003 8 161 8.0 20.9 0.00 0.00 0.00 83 1009.6
20260508021803 8 161 8.0 20.9 0.00 0.00 0.00 83 1009.7
20260508021604 8 159 8.0 20.9 0.00 0.00 0.00 84 1009.6
20260508021403 8 157 8.0 20.9 0.00 0.00 0.00 84 1009.5
20260508021203 8 160 8.0 19.3 0.00 0.00 0.00 84 1009.5
20260508021004 8 163 8.0 19.3 0.00 0.00 0.00 84 1009.5
20260508020804 8 166 8.0 19.3 0.00 0.00 0.00 84 1009.5
20260508020604 8 169 8.0 19.3 0.00 0.00 0.00 84 1009.5
20260508020404 8 172 8.0 19.3 0.00 0.00 0.00 84 1009.6
20260508020204 8 173 8.0 19.3 0.00 0.00 0.00 84 1009.6
20260508020004 8 173 8.0 19.3 0.00 0.00 0.00 84 1009.5
20260508015803 8 175 8.0 17.7 0.00 0.00 0.00 84 1009.5
20260508015603 8 173 8.0 17.7 0.00 0.00 0.00 84 1009.5
20260508015403 8 172 8.0 17.7 0.00 0.00 0.00 84 1009.5
20260508015203 8 172 8.0 17.7 0.00 0.00 0.00 84 1009.5
20260508015003 8 171 8.0 17.7 0.00 0.00 0.00 84 1009.4
20260508014804 7 171 8.0 19.3 0.00 0.00 0.00 84 1009.4
20260508014603 7 175 8.0 20.9 0.00 0.00 0.00 84 1009.3
20260508014403 7 176 8.0 20.9 0.00 0.00 0.00 84 1009.4
20260508014204 7 177 8.0 20.9 0.00 0.00 0.00 84 1009.4
20260508014004 7 176 8.0 20.9 0.00 0.00 0.00 84 1009.4
20260508013803 7 173 8.0 20.9 0.00 0.00 0.00 84 1009.5
20260508013603 7 170 8.0 19.3 0.00 0.00 0.00 84 1009.5
20260508013404 8 170 9.7 19.3 0.00 0.00 0.00 84 1009.5
20260508013203 8 166 9.7 19.3 0.00 0.00 0.00 84 1009.4
20260508013003 8 168 8.0 19.3 0.00 0.00 0.00 84 1009.4
20260508012804 8 170 9.7 19.3 0.00 0.00 0.00 84 1009.4
20260508012603 8 172 9.7 25.7 0.00 0.00 0.00 84 1009.4
20260508012404 8 171 9.7 25.7 0.00 0.00 0.00 83 1009.4
20260508012203 8 174 9.7 25.7 0.00 0.00 0.00 83 1009.3
20260508012003 8 172 9.7 25.7 0.00 0.00 0.00 83 1009.4
20260508011804 8 171 9.7 25.7 0.00 0.00 0.00 84 1009.4
20260508011605 8 168 9.7 20.9 0.00 0.00 0.00 83 1009.3
20260508011403 8 169 9.7 19.3 0.00 0.00 0.00 83 1009.4
20260508011203 8 168 9.7 19.3 0.00 0.00 0.00 83 1009.4
20260508011004 8 167 9.7 27.4 0.00 0.00 0.00 83 1009.4
20260508010803 8 167 9.7 27.4 0.00 0.00 0.00 83 1009.3
20260508010604 8 166 11.3 27.4 0.00 0.00 0.00 83 1009.2
20260508010403 8 166 11.3 27.4 0.00 0.00 0.00 83 1009.2
20260508010204 8 168 11.3 27.4 0.00 0.00 0.00 83 1009.2
20260508010005 8 171 11.3 27.4 0.00 0.00 0.00 83 1009.3
20260508005803 8 172 11.3 22.5 0.00 0.00 0.00 83 1009.4
20260508005603 8 175 9.7 22.5 0.00 0.00 0.00 83 1009.3
20260508005403 8 178 9.7 22.5 0.00 0.00 0.00 83 1009.4
20260508005204 8 180 9.7 22.5 0.00 0.00 0.00 83 1009.4
20260508005003 8 179 9.7 19.3 0.00 0.00 0.00 83 1009.5
20260508004803 8 178 9.7 19.3 0.00 0.00 0.00 83 1009.4
20260508004604 8 177 9.7 19.3 0.00 0.00 0.00 82 1009.4
20260508004403 8 173 8.0 19.3 0.00 0.00 0.00 82 1009.4
20260508004204 8 169 8.0 17.7 0.00 0.00 0.00 82 1009.4
20260508004003 8 168 8.0 17.7 0.00 0.00 0.00 82 1009.3
20260508003804 8 170 8.0 25.7 0.00 0.00 0.00 82 1009.3
20260508003603 8 172 8.0 25.7 0.00 0.00 0.00 82 1009.4
20260508003403 8 178 8.0 25.7 0.00 0.00 0.00 82 1009.3
20260508003204 8 179 8.0 25.7 0.00 0.00 0.00 82 1009.4
20260508003005 8 181 8.0 25.7 0.00 0.00 0.00 82 1009.4
20260508002804 8 176 8.0 20.9 0.00 0.00 0.00 82 1009.4
20260508002603 8 178 8.0 20.9 0.00 0.00 0.00 82 1009.5
20260508002403 8 178 9.7 20.9 0.00 0.00 0.00 82 1009.5
20260508002203 8 181 9.7 19.3 0.00 0.00 0.00 82 1009.5
20260508002005 8 182 9.7 19.3 0.00 0.00 0.00 82 1009.5
20260508001803 8 187 8.0 19.3 0.00 0.00 0.00 81 1009.6
20260508001603 8 187 8.0 19.3 0.00 0.00 0.00 82 1009.7
20260508001405 8 188 8.0 19.3 0.00 0.00 0.00 82 1009.6
20260508001204 8 188 8.0 20.9 0.00 0.00 0.00 82 1009.7
20260508001004 8 189 8.0 20.9 0.00 0.00 0.00 82 1009.6
20260508000803 8 189 8.0 20.9 0.00 0.00 0.00 82 1009.6
20260508000604 8 190 8.0 20.9 0.00 0.00 0.00 82 1009.5
20260508000404 8 190 9.7 20.9 0.00 0.00 0.00 82 1009.7
20260508000204 8 188 9.7 19.3 0.00 0.00 0.00 82 1009.7
20260508000003 8 184 9.7 19.3 0.00 0.00 0.00 82 1009.6
20260507235803 8 178 9.7 20.9 0.00 0.00 0.00 83 1009.6
20260507235605 8 171 9.7 20.9 0.00 0.00 0.00 83 1009.5
20260507235405 8 166 8.0 20.9 0.00 0.00 0.00 83 1009.5
20260507235203 8 165 8.0 20.9 0.00 0.00 0.00 84 1009.5
20260507235003 8 165 6.4 20.9 0.00 0.00 0.00 84 1009.5
20260507234803 8 170 6.4 20.9 0.00 0.00 0.00 83 1009.5
20260507234603 8 173 6.4 20.9 0.00 0.00 0.00 84 1009.5
20260507234403 8 170 6.4 20.9 0.00 0.00 0.00 84 1009.5
20260507234203 8 166 6.4 20.9 0.00 0.00 0.00 84 1009.4
20260507234005 8 162 6.4 16.1 0.00 0.00 0.00 84 1009.6
20260507233804 8 158 6.4 12.9 0.00 0.00 0.00 84 1009.5
20260507233603 7 151 6.4 16.1 0.00 0.00 0.00 84 1009.6
20260507233403 7 149 4.8 16.1 0.00 0.00 0.00 83 1009.6
20260507233204 7 149 4.8 16.1 0.00 0.00 0.00 83 1009.5
20260507233005 7 152 4.8 16.1 0.00 0.00 0.00 83 1009.6
20260507232803 7 150 3.2 16.1 0.00 0.00 0.00 83 1009.6
20260507232603 7 159 3.2 9.7 0.00 0.00 0.00 82 1009.5
20260507232403 8 163 3.2 9.7 0.00 0.00 0.00 82 1009.6
20260507232204 8 172 1.6 9.7 0.00 0.00 0.00 82 1009.6
20260507232004 8 171 3.2 11.3 0.00 0.00 0.00 82 1009.7
20260507231804 8 173 3.2 11.3 0.00 0.00 0.00 82 1009.7
20260507231603 8 173 3.2 11.3 0.00 0.00 0.00 82 1009.7
20260507231403 8 173 3.2 11.3 0.00 0.00 0.00 82 1009.7
20260507231203 8 167 3.2 11.3 0.00 0.00 0.00 82 1009.8
20260507231004 8 169 3.2 9.7 0.00 0.00 0.00 82 1009.8
20260507230804 8 171 3.2 9.7 0.00 0.00 0.00 82 1009.8
20260507230605 8 174 3.2 16.1 0.00 0.00 0.00 82 1009.7
20260507230404 8 183 4.8 16.1 0.00 0.00 0.00 82 1009.7
20260507230203 8 194 4.8 16.1 0.00 0.00 0.00 82 1009.7
20260507230004 8 197 4.8 16.1 0.00 0.00 0.00 83 1009.8
20260507225803 8 199 4.8 16.1 0.00 0.00 0.00 83 1009.7
20260507225603 8 203 3.2 12.9 0.00 0.00 0.00 83 1009.8
20260507225403 8 199 4.8 17.7 0.00 0.00 0.00 83 1009.7
20260507225203 8 185 4.8 17.7 0.00 0.00 0.00 84 1009.7
20260507225004 8 174 4.8 17.7 0.00 0.00 0.00 84 1009.7
20260507224803 8 170 4.8 17.7 0.00 0.00 0.00 84 1009.7
20260507224603 8 169 6.4 17.7 0.00 0.00 0.00 84 1009.6
20260507224405 8 161 6.4 12.9 0.00 0.00 0.00 84 1009.6
20260507224203 8 162 6.4 12.9 0.00 0.00 0.00 84 1009.6
20260507224005 8 168 4.8 12.9 0.00 0.00 0.00 84 1009.5
20260507223803 7 167 6.4 12.9 0.00 0.00 0.00 84 1009.6
20260507223603 7 162 4.8 12.9 0.00 0.00 0.00 84 1009.5
20260507223403 7 161 4.8 12.9 0.00 0.00 0.00 84 1009.5
20260507223203 8 160 4.8 12.9 0.00 0.00 0.00 84 1009.6
20260507223004 8 161 4.8 11.3 0.00 0.00 0.00 84 1009.6
20260507222803 8 167 4.8 11.3 0.00 0.00 0.00 84 1009.6
20260507222604 8 176 4.8 11.3 0.00 0.00 0.00 84 1009.6
20260507222403 8 186 3.2 11.3 0.00 0.00 0.00 84 1009.7
20260507222203 8 193 4.8 17.7 0.00 0.00 0.00 85 1009.8
20260507222004 8 195 4.8 17.7 0.00 0.00 0.00 84 1009.8
20260507221804 8 197 4.8 17.7 0.00 0.00 0.00 85 1009.9
20260507221603 8 197 3.2 17.7 0.00 0.00 0.00 85 1009.8
20260507221404 8 197 3.2 17.7 0.00 0.00 0.00 85 1009.8
20260507221203 8 198 3.2 11.3 0.00 0.00 0.00 85 1009.8
20260507221004 8 198 3.2 11.3 0.00 0.00 0.00 85 1009.9
20260507220805 8 198 4.8 12.9 0.00 0.00 0.00 85 1009.8
20260507220603 8 198 4.8 12.9 0.00 0.00 0.00 85 1009.8
20260507220403 8 196 4.8 12.9 0.00 0.00 0.00 85 1009.9
20260507220204 8 195 4.8 12.9 0.00 0.00 0.00 86 1009.8
20260507220003 8 193 4.8 12.9 0.00 0.00 0.00 86 1009.9
20260507215803 8 191 3.2 9.7 0.00 0.00 0.00 86 1009.8
20260507215604 8 191 3.2 11.3 0.00 0.00 0.00 86 1009.9
20260507215403 7 187 3.2 11.3 0.00 0.00 0.00 86 1009.9
20260507215204 7 184 4.8 17.7 0.00 0.00 0.00 86 1009.8
20260507215004 7 186 4.8 17.7 0.00 0.00 0.00 86 1009.9
20260507214804 7 184 4.8 17.7 0.00 0.00 0.00 87 1009.8
20260507214605 7 181 4.8 17.7 0.00 0.00 0.00 87 1009.7
20260507214403 7 180 4.8 17.7 0.00 0.00 0.00 87 1009.8
20260507214204 7 181 3.2 16.1 0.00 0.00 0.00 87 1009.8
20260507214004 7 173 1.6 16.1 0.00 0.00 0.00 86 1009.8
20260507213804 7 166 1.6 8.0 0.00 0.00 0.00 86 1009.8
20260507213603 7 166 0.0 8.0 0.00 0.00 0.00 86 1009.8
20260507213404 7 166 0.0 6.4 0.00 0.00 0.00 86 1009.8
20260507213204 7 0 0.0 0.0 0.00 0.00 0.00 86 1009.8
20260507213003 7 0 0.0 0.0 0.00 0.00 0.00 86 1009.8
20260507212803 7 0 0.0 0.0 0.00 0.00 0.00 86 1009.8
20260507212604 7 0 0.0 0.0 0.00 0.00 0.00 86 1009.8
20260507212403 7 0 0.0 0.0 0.00 0.00 0.00 86 1009.9
20260507212203 7 0 0.0 0.0 0.00 0.00 0.00 86 1009.9
20260507212003 7 0 0.0 0.0 0.00 0.00 0.00 85 1009.9
20260507211804 7 0 0.0 0.0 0.00 0.00 0.00 85 1009.8
20260507211604 7 163 0.0 3.2 0.00 0.00 0.00 85 1009.8
20260507211403 7 163 0.0 3.2 0.00 0.00 0.00 85 1009.8
20260507211203 7 163 0.0 3.2 0.00 0.00 0.00 85 1009.8
20260507211003 7 162 1.6 8.0 0.00 0.00 0.00 85 1009.8
20260507210805 7 162 1.6 8.0 0.00 0.00 0.00 85 1009.8
20260507210605 7 162 3.2 9.7 0.00 0.00 0.00 85 1009.8
20260507210403 7 165 3.2 9.7 0.00 0.00 0.00 85 1009.7
20260507210204 7 167 4.8 9.7 0.00 0.00 0.00 85 1009.6
20260507210003 8 169 4.8 9.7 0.00 0.00 0.00 85 1009.7
20260507205804 8 171 4.8 9.7 0.00 0.00 0.00 85 1009.6
20260507205603 8 175 4.8 9.7 0.00 0.00 0.00 85 1009.7
20260507205404 8 175 3.2 8.0 0.00 0.00 0.00 85 1009.8
20260507205203 8 175 3.2 8.0 0.00 0.00 0.00 85 1009.8
20260507205004 8 175 3.2 8.0 0.00 0.00 0.00 85 1009.9
20260507204803 8 175 1.6 6.4 0.00 0.00 0.00 85 1009.9
20260507204605 8 175 1.6 8.0 0.00 0.00 0.00 85 1009.9
20260507204403 8 175 3.2 8.0 0.00 0.00 0.00 85 1009.9
20260507204203 8 175 3.2 8.0 0.00 0.00 0.00 85 1009.8
20260507204004 8 175 3.2 8.0 0.00 0.00 0.00 85 1009.8
20260507203804 8 175 3.2 8.0 0.00 0.00 0.00 85 1009.8
20260507203604 8 175 3.2 6.4 0.00 0.00 0.00 85 1009.8
20260507203403 8 175 1.6 6.4 0.00 0.00 0.00 85 1009.8
20260507203203 8 174 1.6 6.4 0.00 0.00 0.00 84 1009.8
20260507203003 8 174 1.6 6.4 0.00 0.00 0.00 84 1009.8
20260507202803 8 174 3.2 9.7 0.00 0.00 0.00 84 1009.8
20260507202605 8 173 3.2 9.7 0.00 0.00 0.00 84 1009.7
20260507202404 8 170 3.2 11.3 0.00 0.00 0.00 84 1009.7
20260507202203 8 167 3.2 11.3 0.00 0.00 0.00 84 1009.7
20260507202003 8 163 3.2 11.3 0.00 0.00 0.00 84 1009.7
20260507201803 8 157 3.2 11.3 0.00 0.00 0.00 84 1009.7
20260507201604 8 153 3.2 11.3 0.00 0.00 0.00 84 1009.7
20260507201403 8 148 4.8 11.3 0.00 0.00 0.00 84 1009.7
20260507201205 8 147 4.8 11.3 0.00 0.00 0.00 84 1009.6
20260507201004 8 146 4.8 11.3 0.00 0.00 0.00 84 1009.7
20260507200803 8 145 6.4 16.1 0.00 0.00 0.00 84 1009.7
20260507200603 8 146 6.4 16.1 0.00 0.00 0.00 84 1009.6
20260507200404 8 147 6.4 16.1 0.00 0.00 0.00 84 1009.6
20260507200203 8 149 6.4 16.1 0.00 0.00 0.00 84 1009.6
20260507200003 8 152 6.4 16.1 0.00 0.00 0.00 84 1009.7
20260507195803 8 157 6.4 11.3 0.00 0.00 0.00 83 1009.7
20260507195604 8 160 4.8 12.9 0.00 0.00 0.00 83 1009.6
20260507195403 8 163 4.8 12.9 0.00 0.00 0.00 83 1009.6
20260507195203 8 168 4.8 12.9 0.00 0.00 0.00 83 1009.6
20260507195003 9 167 4.8 12.9 0.00 0.00 0.00 83 1009.6
20260507194803 9 162 4.8 11.3 0.00 0.00 0.00 83 1009.6
20260507194604 9 157 4.8 12.9 0.00 0.00 0.00 83 1009.6
20260507194403 9 152 4.8 12.9 0.00 0.00 0.00 83 1009.6
20260507194203 9 148 6.4 12.9 0.00 0.00 0.00 83 1009.6
20260507194003 9 146 6.4 16.1 0.00 0.00 0.00 83 1009.5
20260507193804 9 146 6.4 16.1 0.00 0.00 0.00 83 1009.6
20260507193603 9 146 6.4 16.1 0.00 0.00 0.00 83 1009.6
20260507193403 9 145 8.0 16.1 0.00 0.00 0.00 83 1009.5
20260507193204 9 146 8.0 16.1 0.00 0.00 0.00 83 1009.6
20260507193003 9 146 6.4 16.1 0.00 0.00 0.00 82 1009.6
20260507192803 9 146 6.4 16.1 0.00 0.00 0.00 82 1009.6
20260507192603 9 146 6.4 16.1 0.00 0.00 0.00 82 1009.6
20260507192404 9 146 6.4 16.1 0.00 0.00 0.00 82 1009.5
20260507192203 9 145 6.4 16.1 0.00 0.00 0.00 82 1009.5
20260507192004 9 145 6.4 16.1 0.00 0.00 0.00 82 1009.5
20260507191803 9 145 6.4 16.1 0.00 0.00 0.00 82 1009.6
20260507191603 10 146 6.4 11.3 0.00 0.00 0.00 82 1009.6
20260507191403 10 146 6.4 17.7 0.00 0.00 0.00 82 1009.5
20260507191203 10 146 6.4 17.7 0.00 0.00 0.00 82 1009.5
20260507191004 10 145 8.0 17.7 0.00 0.00 0.00 82 1009.6
20260507190803 10 147 8.0 17.7 0.00 0.00 0.00 82 1009.6
20260507190604 10 147 8.0 17.7 0.00 0.00 0.00 82 1009.6
20260507190403 10 147 6.4 17.7 0.00 0.00 0.00 82 1009.6
20260507190203 10 146 8.0 17.7 0.00 0.00 0.00 82 1009.6
20260507190004 10 148 6.4 17.7 0.00 0.00 0.00 82 1009.5
20260507185804 10 147 6.4 17.7 0.00 0.00 0.00 82 1009.5
20260507185604 10 147 8.0 19.3 0.00 0.00 0.00 82 1009.5
20260507185404 10 147 8.0 19.3 0.00 0.00 0.00 82 1009.6
20260507185203 10 147 9.7 19.3 0.00 0.00 0.00 82 1009.6
20260507185004 10 148 9.7 19.3 0.00 0.00 0.00 82 1009.6
20260507184803 10 148 9.7 19.3 0.00 0.00 0.00 82 1009.5
20260507184603 10 147 8.0 19.3 0.00 0.00 0.00 82 1009.5
20260507184404 10 146 8.0 20.9 0.00 0.00 0.00 82 1009.4
20260507184203 10 151 6.4 20.9 0.00 0.00 0.00 82 1009.5
20260507184003 10 154 4.8 20.9 0.00 0.00 0.00 82 1009.6
20260507183804 10 156 4.8 20.9 0.00 0.00 0.00 81 1009.6
20260507183603 10 157 4.8 20.9 0.00 0.00 0.00 81 1009.7
20260507183403 10 156 4.8 16.1 0.00 0.00 0.00 81 1009.6
20260507183204 10 148 4.8 16.1 0.00 0.00 0.00 81 1009.6
20260507183003 10 147 6.4 16.1 0.00 0.00 0.00 81 1009.7
20260507182804 10 144 6.4 16.1 0.00 0.00 0.00 81 1009.6
20260507182603 10 145 6.4 17.7 0.00 0.00 0.00 81 1009.6
20260507182403 10 149 6.4 17.7 0.00 0.00 0.00 81 1009.6
20260507182203 10 148 8.0 17.7 0.00 0.00 0.00 81 1009.5
20260507182004 10 146 8.0 17.7 0.00 0.00 0.00 81 1009.6
20260507181803 10 147 8.0 20.9 0.00 0.00 0.00 81 1009.6
20260507181604 10 146 8.0 20.9 0.00 0.00 0.00 81 1009.6
20260507181403 10 145 9.7 20.9 0.00 0.00 0.00 81 1009.6
20260507181205 10 147 8.0 20.9 0.00 0.00 0.00 81 1009.6
20260507181004 10 148 8.0 20.9 0.00 0.00 0.00 81 1009.6
20260507180803 10 149 8.0 19.3 0.00 0.00 0.00 81 1009.5
20260507180605 10 149 8.0 19.3 0.00 0.00 0.00 81 1009.5
20260507180403 10 149 9.7 19.3 0.00 0.00 0.00 81 1009.5
20260507180203 10 148 9.7 19.3 0.00 0.00 0.00 81 1009.6
20260507180004 10 148 11.3 19.3 0.00 0.00 0.00 81 1009.6
20260507175804 10 147 11.3 20.9 0.00 0.00 0.00 81 1009.6
20260507175604 10 148 11.3 22.5 0.00 0.00 0.00 81 1009.6
20260507175403 10 147 11.3 22.5 0.00 0.00 0.00 81 1009.5
20260507175205 10 148 11.3 22.5 0.00 0.00 0.00 81 1009.5
20260507175004 10 147 9.7 22.5 0.00 0.00 0.00 81 1009.6
20260507174804 10 146 9.7 22.5 0.00 0.00 0.00 81 1009.5
20260507174603 10 146 9.7 22.5 0.00 0.00 0.00 81 1009.5
20260507174403 10 145 9.7 22.5 0.00 0.00 0.00 81 1009.5
20260507174204 10 144 9.7 22.5 0.00 0.00 0.00 81 1009.5
20260507174003 10 145 11.3 22.5 0.00 0.00 0.00 81 1009.4
20260507173803 10 145 9.7 22.5 0.00 0.00 0.00 81 1009.5
20260507173604 10 145 9.7 22.5 0.00 0.00 0.00 81 1009.5
20260507173404 10 147 11.3 22.5 0.00 0.00 0.00 80 1009.5
20260507173204 10 148 11.3 22.5 0.00 0.00 0.00 80 1009.5
20260507173004 10 149 9.7 22.5 0.00 0.00 0.00 81 1009.5
20260507172804 10 151 11.3 22.5 0.00 0.00 0.00 80 1009.6
20260507172603 10 150 12.9 22.5 0.00 0.00 0.00 80 1009.6
20260507172403 10 149 11.3 22.5 0.00 0.00 0.00 80 1009.5
20260507172203 10 149 11.3 22.5 0.00 0.00 0.00 81 1009.6
20260507172004 10 148 11.3 22.5 0.00 0.00 0.00 81 1009.6
20260507171803 10 145 11.3 22.5 0.00 0.00 0.00 81 1009.6
20260507171603 10 145 9.7 19.3 0.00 0.00 0.00 82 1009.6
20260507171404 10 148 9.7 19.3 0.00 0.00 0.00 82 1009.6
20260507171204 10 148 9.7 19.3 0.00 0.00 0.00 81 1009.6
20260507171004 10 151 11.3 29.0 0.00 0.00 0.00 81 1009.6
20260507170803 10 151 11.3 29.0 0.00 0.00 0.00 81 1009.5
20260507170604 10 151 12.9 29.0 0.00 0.00 0.00 81 1009.6
20260507170403 10 150 12.9 29.0 0.00 0.00 0.00 81 1009.5
20260507170204 10 150 11.3 29.0 0.00 0.00 0.00 80 1009.5
20260507170004 10 150 9.7 29.0 0.00 0.00 0.00 81 1009.5
20260507165803 10 151 8.0 29.0 0.00 0.00 0.00 81 1009.6
20260507165603 10 151 6.4 16.1 0.00 0.00 0.00 81 1009.6
20260507165405 10 151 6.4 16.1 0.00 0.00 0.00 81 1009.7
20260507165203 10 153 8.0 19.3 0.00 0.00 0.00 81 1009.7
20260507165003 10 150 8.0 19.3 0.00 0.00 0.00 81 1009.7
20260507164803 10 150 8.0 19.3 0.00 0.00 0.00 81 1009.8